Regional Weather Roundup
Issued by NWS Newport/Morehead, NC

Current Version | Previous Version | Text Only | Print | Product List | Glossary On
Versions: 1 2 3 4 5 6 7 8 9 10 11 12 13 14 15 16 17 18 19 20 21 22 23 24 25 26 27 28 29 30 31 32 33 34 35 36 37 38 39 40 41 42 43 44 45 46 47 48 49 50
000 ASUS42 KMHX 050313 RWRMHX WEATHER ROUNDUP FOR EASTERN NORTH CAROLINA NATIONAL WEATHER SERVICE NEWPORT/MOREHEAD CITY NC 1100 PM EDT FRI SEP 04 2015 NOTE: "FAIR" INDICATES FEW OR NO CLOUDS BELOW 12,000 FEET WITH NO SIGNIFICANT WEATHER AND/OR OBSTRUCTIONS TO VISIBILITY NCZ015>017-031-032-045>047-102-103-050400- NORTH COAST CITY SKY/WX TMP DP RH WIND PRES REMARKS EDENTON CLEAR 71 69 93 N3 30.05R FOG ELIZABETH CITY PTCLDY 76 71 85 NE9 30.05R KITTY HAWK PTCLDY 78 72 80 NE9 30.02S MANTEO PTCLDY 78 71 79 E12G18 30.03S $$ NCZ045>047-081-094-103-104-050400- CENTRAL COAST CITY SKY/WX TMP DP RH WIND PRES REMARKS FRISCO PTCLDY 79 72 79 NE7G17 30.00S SWANQUARTER N/A 75 N/A N/A NE5 29.97F $$ NCZ095-097-098-100-101-050400- SOUTHERN COAST CITY SKY/WX TMP DP RH WIND PRES REMARKS BEAUFORT PTCLDY 76 74 93 NE6 30.00F CEDAR ISLAND N/A 82 N/A N/A NE14G20 30.06S JACKSONVILLE MOCLDY 77 70 79 NE3 30.01S PINEY ISLAND PTCLDY N/A N/A N/A NE12 30.00F WILMINGTON MOCLDY 75 68 78 CALM 30.01R $$ NCZ011>013-027>030-043-044-078>080-089-090>093-098-050400- COASTAL PLAIN CITY SKY/WX TMP DP RH WIND PRES REMARKS AHOSKIE PTCLDY 71 69 93 CALM 30.07S FOG CLINTON PTCLDY 72 72 100 CALM 30.04F ELIZABETHTOWN CLOUDY 72 71 97 CALM 30.03S FOG GOLDSBORO PTCLDY 73 69 87 CALM 30.03R GREENVILLE PTCLDY 73 72 94 N5 30.06S FOG HAVELOCK PTCLDY 76 73 91 N5 30.02S KENANSVILLE N/A 73 68 84 CALM 30.04S KINSTON PTCLDY 74 71 87 N6 30.04S NEW BERN PTCLDY 75 70 84 NE7 30.04R RICHLANDS MOCLDY 73 66 78 NE8 30.02F ROCKY MOUNT PTCLDY 75 71 87 NE7 30.06R WASHINGTON PTCLDY 72 70 93 CALM 30.04R WHITEVILLE LGT RAIN 71 69 92 CALM 30.02S $$ AMZ130-135-150-152-154-156-158-170-250-252-270-ANZ085-086-088-633-658-670-050400- MARINE OBSERVATIONS STATION/POSITION TIME TEMP WIND PRES WAVE SWELL AIR SEA DIR/SP/G HT/PER HT/PER (UTC) (F) (DEG/KT/KT) (MB) (FT/S) (FT/S) CHESAPEAKE LIGHT 0300 79 60/ 17/ 18 1018.4 64 E VA BEACH 0250 80 80 60/ 17/ 21 1016.6 4/ 5 2/12 DUCK 0200 80 81 60/ 16/ 19 1016.3 2 E DUCK 0211 80 N/A 3/ 4 OREGON INLET 0200 79 83 40/ 14/ 17 1016.4 13E OREGON INLT 0300 81 N/A 4/ 5 HATTERAS CG 0200 81 84 40/ 10/ 15 1015.6 DIAMOND BUOY 0250 78 84 50/ 19/ 23 1015.3 3/ 4 CAPE LOOKOUT 0300 81 40/ 14/ 17 1015.5 BEAUFORT LAB 0200 79 83 20/ 6/ 8 1015.6 30 SE NEW RVR IN 0208 83 83 330/ 6/ 8 1016.2 30 SE NEW RVR IN 0225 83 N/A 1/12 27 SE WRIGHTSVLE 0200 79 83 340/ 4/ 6 N/A 5 SE WRIGHTSVLE 0208 80 82 340/ 4/ 8 1016.0 225 S CAPE HAT 0250 82 84 30/ 10/ 12 1014.4 1/10 2/10 41 SE CHARLESTON 0250 82 85 40/ 6/ 6 1015.7 1/ 6 $$

USA.gov is the U.S. government's official web portal to all federal, state and local government web resources and services.